Location: Asheville, NC
(35.6000°N, 82.5500°W)
Time: 09:41:31

YUBILEINY - Pass Details

Date: 15 March 2018
Orbit: 1478 x 1509 km, 82.5° (Epoch: 20 March)

Event Time Altitude Azimuth Distance (km) Brightness Sun altitude
Rises 05:06:14 0° 1° (N) 4,613 ? -31.6°
Reaches altitude 10° 05:09:27 10° 9° (N) 3,633 ? -31.0°
Maximum altitude 05:17:23 37° 75° (ENE) 2,155 ? -29.5°
Drops below altitude 10° 05:25:18 10° 140° (SE) 3,640 ? -28.0°
Sets 05:28:29 0° 148° (SSE) 4,621 ? -27.4°
